Location: LDNL
(36.4545°S, 141.6685°E)
Time: 10:57:55
(UTC+10:00)

Oscar 11 - Pass Details

Date: 22 May 2022
Orbit: 613 x 622 km, 97.6° (Epoch: 29 June)

Event Time Altitude Azimuth Distance (km) Brightness Sun altitude
Rises 18:09:19 0° 179° (S) 2,933 10.3 -8.0°
Reaches altitude 10° 18:11:40 10° 187° (S) 2,017 9.6 -8.4°
Maximum altitude 18:15:38 34° 252° (WSW) 1,034 8.8 -9.2°
Drops below altitude 10° 18:19:32 10° 317° (NW) 1,986 10.7 -9.9°
Sets 18:21:51 0° 326° (NW) 2,881 11.4 -10.4°
